Home   Weather   Aalen   Past weeks

Flag for Germany Past Weather in Aalen, Baden-Württemberg, Germany — Yesterday and Last 2 Weeks

Now
50 °F

Overcast.


Feels Like: 45 °F
Forecast: 38 / 45 °F
Wind: 14 mph from South

Location: Niederstetten

Current Time: Feb 27, 2017 at 9:59:50 pm

Latest Report: Feb 27, 2017 at 9:20 pm


Visibility: N/A

Pressure: 29.45 "Hg

Humidity: 54%

Dew Point: 34 °F

Location of AalenLocation

Past Weather in Aalen — Graph

°F

Aalen Temperature Yesterday

Maximum temperature yesterday: 52 °F (at 3:20 pm)
Minimum temperature yesterday: 34 °F (at 3:20 am)
Average temperature yesterday: 42 °F

High & Low Weather Summary for the Past Weeks

 TemperatureHumidityPressure
High59 °F (Feb 23, 3:05 pm)100% (Feb 16, 11:20 pm)30.54 "Hg (Feb 16, 11:20 pm)
Low28 °F (Feb 14, 2:20 am)31% (Feb 23, 3:20 pm)29.45 "Hg (Feb 23, 3:52 pm)
Average41 °F78%30.10 "Hg
* Reported Feb 12 8:20 pm — Feb 27 8:20 pm, Aalen, Weather by CustomWeather, © 2017

Note: Actual official high and low records may vary slightly from our data, if they occured in-between our weather recording intervals... More about our weather records

Advertising

Aalen Weather History for the Previous 24 Hours

Scroll right to see more
 ConditionsComfort  
Time TempWeatherWind HumidityBarometerVisibility
8:20 pm
Mon, Feb 27
50 °FPassing clouds.10 mph54%29.47 "HgN/A
7:20 pm50 °FPassing clouds.9 mph54%29.50 "HgN/A
6:20 pm52 °FPassing clouds.13 mph50%29.53 "HgN/A
5:20 pm54 °FPassing clouds.14 mph47%29.53 "HgN/A
5:00 pm55 °FPassing clouds.15 mph44%29.53 "HgN/A
4:20 pm55 °FPassing clouds.13 mph44%29.56 "HgN/A
3:20 pm55 °FPassing clouds.12 mph44%29.59 "HgN/A
2:20 pm55 °FPassing clouds.10 mph47%29.65 "HgN/A
1:20 pm54 °FPassing clouds.10 mph51%29.68 "HgN/A
12:20 pm54 °FPassing clouds.12 mph51%29.71 "HgN/A
11:20 am50 °FPassing clouds.13 mph58%29.74 "HgN/A
10:20 am48 °FPassing clouds.10 mph58%29.77 "HgN/A
9:20 am43 °FPartly sunny.7 mph61%29.80 "HgN/A
8:20 am39 °FPartly sunny.7 mph65%29.83 "HgN/A
7:20 am37 °FPartly sunny.9 mph65%29.83 "HgN/A
6:20 am39 °FPassing clouds.9 mph65%29.83 "HgN/A
5:20 am37 °FPassing clouds.6 mph70%29.86 "HgN/A
4:20 am37 °FPassing clouds.7 mph70%29.89 "HgN/A
3:20 am39 °FPassing clouds.7 mph70%29.89 "HgN/A
2:20 am43 °FPassing clouds.6 mph61%29.92 "HgN/A
1:20 am41 °FPassing clouds.5 mph66%29.92 "HgN/A
12:20 am43 °FPassing clouds.6 mph53%29.92 "HgN/A
11:20 pm
Sun, Feb 26
43 °FPassing clouds.8 mph53%29.92 "HgN/A
10:20 pm46 °FPassing clouds.12 mph46%29.95 "HgN/A
9:20 pm45 °FPassing clouds.12 mph49%29.95 "HgN/A
Weather by CustomWeather, © 2017

See weather overviewHow to use our weather pages